GFSMW_con_mlcape_081.txt.gz
CAPE
0 0 0 0 297 1012 1618 1857 1629 1418 1127 768 501 304 226 253 67 34 14 21 30 124 130 40 5 3 10 6 17 34 50 47 29 19 17 23 21 26 17 13 2 10 9
0 0 0 0 542 1163 1610 1812 1531 1289 1027 724 413 225 224 277 173 109 36 8 8 29 19 37 5 3 9 10 8 30 44 69 30 15 23 26 30 25 9 3 7 10 22
0 0 0 0 666 1058 1605 1735 1459 1150 875 661 397 175 47 128 92 94 84 29 109 85 54 12 13 15 1 0 0 24 48 51 20 16 2 20 15 17 21 11 12 15 14
0 0 0 0 584 987 1448 1632 1447 1147 884 667 328 227 166 24 82 34 75 61 49 109 77 7 6 8 1 1 0 29 41 31 34 38 42 24 9 9 28 25 10 19 11
0 0 0 0 418 950 1404 1555 1381 1177 891 729 533 236 61 97 81 29 18 4 5 0 2 5 2 2 2 1 0 24 24 45 39 55 82 49 40 42 33 13 13 19 8
0 0 0 0 181 803 1348 1440 1373 1188 936 863 497 199 95 86 134 68 27 2 1 1 1 1 2 3 3 1 0 24 37 34 31 62 61 54 33 59 35 42 49 26 24
4 0 0 2 68 688 1313 1387 1348 947 964 736 438 161 95 137 23 85 20 1 1 2 0 0 1 0 2 10 7 30 25 41 38 41 27 43 58 51 35 71 57 36 51
396 217 3 13 287 717 1245 1303 1245 757 862 716 419 137 72 70 131 92 32 4 2 2 1 1 1 0 1 2 29 43 43 53 46 35 52 65 53 36 45 20 13 41 47
0 328 109 428 522 969 1150 945 925 412 626 574 326 87 52 18 38 28 44 63 26 10 3 1 0 1 0 0 0 5 6 18 28 45 47 68 31 31 64 77 34 54 35
0 2 283 596 711 995 479 340 554 198 298 426 197 43 34 16 43 38 12 3 4 9 26 7 0 1 0 0 0 0 0 0 7 1 2 8 18 25 25 23 16 46 62
5 6 51 668 692 263 111 197 138 124 77 67 46 0 2 3 23 17 20 6 18 19 16 22 7 2 2 2 1 0 0 0 0 0 0 0 0 3 0 0 1 28 30
4 5 6 1 46 40 46 65 115 33 2 7 6 2 2 1 14 12 12 17 16 12 13 15 11 4 2 3 3 2 0 0 0 0 0 0 0 0 0 0 0 0 0
4 5 6 3 2 3 2 0 24 21 1 13 4 3 4 9 4 1 3 2 2 0 2 12 23 15 6 4 2 2 2 2 0 0 1 0 0 0 0 0 0 0 0
3 4 5 5 4 5 4 3 2 1 1 2 1 3 1 12 10 4 16 10 5 2 0 1 3 2 4 3 3 3 3 2 3 2 7 0 0 0 1 1 0 2 0
0 3 5 4 3 4 3 3 3 2 2 1 1 1 1 0 0 0 0 0 0 0 0 1 1 0 0 3 0 0 1 26 36 62 34 41 50 38 6 2 1 10 28
1 0 3 3 3 2 3 2 4 2 1 2 1 1 1 2 1 4 5 3 2 4 4 3 4 5 4 3 1 0 0 0 0 1 0 0 0 0 0 0 0 0 0
4 0 2 2 2 1 1 2 1 0 0 0 0 0 0 1 2 3 1 4 5 5 7 8 6 6 2 0 0 0 0 1 1 1 1 1 3 1 1 0 0 2 9
4 3 1 0 0 0 0 0 0 0 0 0 0 0 0 0 1 2 2 2 2 4 6 5 2 0 0 0 0 0 2 2 3 2 3 4 3 0 0 0 3 5 10
1 0 2 0 0 0 0 0 0 0 0 0 0 0 0 0 0 0 1 0 1 0 1 0 0 1 1 0 0 1 2 3 3 2 1 1 1 0 0 0 1 9 10
1 0 0 0 0 0 0 0 0 0 0 0 0 0 0 0 0 0 0 0 0 0 0 0 0 0 1 2 0 0 1 5 5 2 1 1 2 4 2 5 6 2 5
1 0 0 0 0 0 0 2 1 0 0 0 0 0 0 0 0 0 0 0 0 0 0 0 0 0 0 1 0 0 0 1 2 2 2 1 0 0 2 2 4 4 2
0 0 0 0 0 0 0 0 0 0 0 0 0 0 0 0 0 0 0 0 0 0 1 1 1 2 2 1 1 0 0 0 1 2 1 1 0 0 0 0 1 0 1
0 0 0 0 0 0 0 0 0 0 0 0 0 0 0 0 0 0 0 0 1 0 0 0 2 1 1 2 0 0 0 0 1 1 0 1 0 0 0 0 0 0 0
0 0 0 0 0 0 0 0 0 0 0 0 0 0 0 0 0 0 0 1 0 0 0 1 2 2 1 2 1 1 2 0 2 0 0 0 0 0 0 1 0 1 1
0 0 0 0 0 0 0 0 0 0 0 0 0 0 0 0 0 1 0 0 0 0 1 1 0 1 3 1 0 0 2 1 0 1 1 0 0 0 0 0 0 0 0
0 0 1 0 1 1 0 0 0 0 0 0 1 0 0 0 0 0 0 0 1 0 0 0 1 1 0 0 0 0 0 0 0 0 0 0 0 0 0 0 0 0 0

GFSMW_con_mlcape_087.txt.gz
CAPE
0 0 0 0 0 0 154 1696 1866 1723 1348 1114 993 773 479 556 874 674 661 617 530 463 218 108 67 11 14 22 19 28 20 20 9 0 1 0 0 0 0 0 0 0 0
0 0 0 0 0 0 801 1782 1919 1727 1231 986 822 584 319 383 447 530 429 453 374 269 141 96 35 11 8 21 22 4 16 20 18 1 3 0 1 9 0 5 0 0 0
0 0 0 0 0 35 1327 1844 1830 1604 1188 911 848 591 334 348 345 306 118 67 137 168 119 59 5 5 4 2 11 13 9 22 22 6 0 0 2 6 16 6 4 1 0
0 0 0 0 30 1035 1897 1820 1692 1556 1136 1063 854 633 506 457 308 153 122 63 61 135 141 86 22 16 10 13 6 9 1 15 9 7 0 0 1 0 4 4 4 5 3
0 0 0 0 56 1740 2022 1767 1713 1489 1155 957 739 580 546 493 298 136 121 117 65 52 43 30 26 24 28 23 24 1 7 11 0 0 0 7 20 12 0 0 0 0 0
0 0 0 0 38 1467 1854 1777 1706 1562 1236 920 722 626 535 405 301 119 115 70 49 59 31 21 20 16 28 20 28 13 0 0 8 11 3 15 17 11 13 0 0 0 0
0 0 0 0 0 98 1683 1716 1603 1431 1246 1009 759 639 469 289 130 203 137 83 4 0 3 0 1 13 18 11 19 6 2 0 1 1 15 12 42 65 31 8 1 0 0
0 0 0 0 0 26 1359 1667 1438 1275 1165 974 820 683 428 284 146 161 113 20 0 0 0 0 0 1 3 1 1 7 4 8 9 7 25 11 40 44 19 8 12 12 13
0 0 0 0 0 402 1351 1453 1389 1227 1103 1010 971 660 412 213 157 106 82 6 0 1 1 2 1 2 1 1 1 6 3 2 6 15 18 20 35 30 50 37 24 5 0
0 0 1 1 4 0 144 610 1005 1078 1037 982 801 473 246 138 153 188 109 5 0 1 2 1 0 0 1 3 1 1 2 3 4 7 13 25 25 34 36 35 14 5 2
2 1 1 4 6 5 0 0 210 480 978 881 531 275 151 84 152 93 110 73 5 0 1 1 0 0 0 0 5 2 2 2 1 4 1 10 15 41 44 34 7 0 0
3 2 0 2 4 5 4 3 0 148 450 435 284 138 54 42 72 69 59 41 10 6 4 4 1 1 0 0 0 1 1 1 1 0 7 8 25 33 16 1 0 0 0
0 2 0 1 3 6 7 4 3 3 42 76 40 13 17 58 82 56 23 10 15 9 16 8 1 4 0 0 0 0 1 0 2 1 6 7 10 8 0 0 0 0 0
4 4 2 0 2 4 4 7 5 5 2 0 0 0 0 0 0 0 6 5 3 0 0 0 0 0 0 0 1 0 0 0 0 0 0 0 0 0 0 0 0 0 0
4 6 5 4 0 2 3 2 3 4 4 3 0 0 2 1 0 0 0 0 0 0 1 2 1 1 0 1 0 0 1 1 0 0 0 2 2 0 0 0 0 0 1
6 6 4 4 3 1 2 2 2 2 2 6 5 4 1 3 4 7 6 6 7 8 3 7 7 5 6 3 0 0 0 0 1 2 5 3 5 4 1 2 8 1 0
5 5 3 3 3 2 0 1 2 2 2 3 3 5 6 4 5 6 7 11 10 5 10 7 3 8 3 1 0 0 2 4 4 3 5 6 2 6 2 1 1 2 2
3 2 2 1 1 3 2 0 1 1 0 2 2 3 4 6 5 7 7 7 5 7 6 6 5 4 5 6 6 5 3 6 6 4 4 5 2 2 5 3 3 5 3
2 1 1 1 0 1 2 1 0 0 0 1 1 2 2 2 3 5 5 5 5 5 6 2 1 3 1 2 4 3 5 5 5 4 3 1 2 3 3 3 3 4 4
1 1 0 1 1 0 0 3 4 1 0 1 1 1 2 2 2 2 4 3 2 4 2 4 3 2 2 1 2 1 3 4 4 2 2 1 2 2 1 0 0 1 1
1 0 0 0 0 0 0 1 0 1 1 1 0 0 1 0 0 0 1 1 1 1 2 2 2 2 1 1 2 1 2 3 3 3 2 1 1 2 2 0 0 0 0
0 0 0 0 0 0 1 1 0 1 1 1 1 1 1 1 0 0 0 0 1 1 1 1 2 1 1 1 1 1 1 0 2 2 1 0 0 0 0 0 0 0 0
0 0 0 0 0 0 0 0 0 0 0 0 0 0 1 1 0 0 0 0 0 2 1 1 1 0 0 2 1 1 0 0 0 0 0 0 0 0 0 0 0 0 0
0 1 0 0 0 1 0 0 0 0 0 0 0 0 0 0 0 0 0 0 0 0 1 0 0 0 0 0 0 0 0 0 0 0 0 0 0 0 0 0 0 0 0
0 0 0 0 0 0 1 0 0 0 0 0 0 0 0 1 1 1 1 1 0 0 1 2 1 1 1 0 0 0 0 0 0 0 0 0 0 0 0 0 0 0 0
0 0 0 0 0 0 0 1 0 0 0 0 0 0 0 0 0 0 1 0 1 1 0 0 0 0 0 0 0 0 0 0 0 0 0 0 0 0 0 0 0 0 0

GFSMW_con_mlcape_090.txt.gz
CAPE
0 0 0 0 0 0 0 351 1197 1750 1824 1436 1268 967 859 1066 1077 864 802 766 714 652 532 327 320 314 121 13 1 1 15 13 38 63 6 0 0 0 0 0 0 0 0
0 0 0 0 0 0 0 600 1131 1376 1767 1381 1162 744 420 495 418 714 599 630 638 444 469 373 237 136 31 3 2 3 0 9 39 16 0 2 0 0 0 0 0 0 0
3 0 0 0 0 0 22 587 1102 1178 1462 1215 588 376 247 279 367 509 492 460 460 460 387 326 191 38 4 2 6 5 1 18 1 2 0 1 0 0 0 0 0 0 0
0 0 0 0 0 0 69 796 1118 1353 1174 917 764 720 544 311 245 325 372 382 397 330 252 157 57 17 3 1 2 11 19 21 2 1 0 0 0 0 0 0 0 0 0
0 0 0 0 0 73 376 1112 1415 1272 967 1034 775 611 380 250 198 244 355 210 80 156 154 96 61 27 0 4 4 11 2 14 1 0 0 0 0 0 0 0 0 0 0
0 0 1 0 0 320 1626 1569 1539 1174 949 907 690 643 433 286 295 271 221 109 101 109 99 121 91 17 1 11 34 33 6 13 0 0 0 0 0 0 0 0 0 0 0
0 0 2 0 0 31 703 1573 1379 1114 1042 813 662 515 438 370 386 292 213 137 141 97 82 57 43 25 15 18 48 44 30 11 0 0 0 0 0 1 1 6 4 0 0
0 0 4 2 1 0 557 1354 1117 894 768 670 476 389 391 412 366 294 167 89 78 63 39 28 30 20 7 15 33 59 39 3 4 0 0 0 2 9 10 12 11 2 0
1 2 4 4 5 2 69 1038 924 838 638 533 459 486 465 356 270 151 196 100 45 27 3 0 1 4 0 7 16 12 3 1 1 6 4 2 10 35 14 23 27 37 9
2 1 3 4 6 5 5 87 545 713 547 434 504 455 424 303 236 140 130 87 30 2 0 0 1 1 1 0 3 8 1 1 1 1 2 0 11 8 15 8 12 16 14
4 2 2 3 7 6 8 6 19 423 427 400 395 439 350 319 210 160 95 71 13 0 0 1 1 0 5 1 5 0 1 1 0 1 0 7 3 1 4 0 12 9 14
3 3 3 2 5 6 10 2 0 2 52 135 241 268 248 208 171 169 120 65 5 0 1 1 1 0 0 0 1 1 1 1 1 0 13 0 4 5 0 0 0 8 5
3 2 0 1 3 3 6 7 5 3 0 45 79 99 80 132 101 68 93 108 42 8 9 1 1 3 2 0 0 3 9 0 1 0 2 4 2 0 0 0 0 0 0
4 4 3 2 1 3 3 5 5 6 3 1 0 2 0 0 0 4 4 1 1 0 0 0 0 0 0 0 0 0 0 3 8 0 5 0 1 5 2 4 4 0 0
5 8 6 4 4 3 1 2 3 4 6 2 4 1 0 0 0 0 0 0 0 1 2 0 0 0 0 0 0 0 0 0 0 1 1 1 0 0 0 0 0 0 0
7 6 5 3 3 3 3 1 2 3 3 7 6 6 3 4 4 3 4 4 5 6 6 5 6 4 4 1 2 0 0 0 1 1 5 7 4 7 5 4 5 0 0
4 4 4 3 2 2 4 4 1 2 2 4 5 6 7 7 7 9 9 8 8 6 8 9 6 9 8 4 5 5 6 6 8 7 2 3 4 3 3 9 5 6 6
2 2 2 2 1 0 1 3 3 1 1 1 3 3 4 6 5 7 10 9 8 7 8 8 6 9 8 7 8 4 5 5 4 3 4 3 5 2 2 2 6 6 4
1 1 2 3 1 0 0 3 3 4 1 2 3 3 0 0 3 5 5 5 5 5 5 3 5 6 5 5 6 2 7 7 6 4 3 4 3 4 3 0 4 6 7
2 2 2 1 1 2 0 1 1 2 4 3 3 2 3 2 1 4 5 4 3 4 2 3 2 2 4 4 3 1 3 6 6 3 4 2 3 3 1 0 0 4 5
2 1 1 1 1 0 0 1 1 1 1 2 2 1 1 1 2 2 3 3 3 2 1 2 1 1 2 3 4 4 2 5 4 2 2 1 2 3 2 0 0 1 0
0 0 0 0 1 0 0 1 0 0 0 0 0 0 0 0 0 1 1 1 2 2 2 3 3 0 0 1 1 1 1 1 2 1 0 1 1 1 1 1 0 0 0
0 0 0 0 0 0 0 1 0 1 1 1 1 0 0 0 0 0 0 1 1 1 1 1 1 0 0 0 0 1 1 0 0 0 0 0 1 0 0 0 0 0 0
0 0 0 0 0 0 0 0 0 0 0 0 0 1 0 0 1 0 0 0 0 0 0 0 0 0 0 0 0 0 0 1 0 0 0 0 0 0 0 0 0 0 0
0 0 0 0 0 0 0 0 0 0 0 0 0 1 1 1 1 0 1 0 0 0 0 0 0 0 0 0 0 0 0 0 0 0 0 0 0 0 0 0 0 0 0
0 0 0 0 0 0 0 0 0 0 0 0 0 0 0 0 0 0 1 1 1 0 0 0 0 0 0 0 0 0 0 0 0 0 0 0 0 0 0 0 0 0 0

GFSMW_con_mlcape_093.txt.gz
CAPE
0 0 0 0 0 0 0 0 558 1282 2020 1876 1662 1517 1515 1301 1278 1290 1261 1034 846 636 550 374 187 98 41 17 15 5 0 0 14 39 0 0 2 1 1 0 0 0 0
0 0 0 0 0 0 0 0 329 899 1553 1695 1716 1446 1491 1191 1061 1007 1081 948 791 645 561 419 262 201 148 48 5 0 2 4 7 33 0 1 0 0 1 0 0 0 0
0 0 0 0 0 0 0 2 353 884 1255 1685 1358 966 856 695 549 783 908 648 686 536 490 360 273 249 60 47 8 0 2 4 8 0 0 2 1 0 0 0 0 0 0
0 0 0 0 0 0 0 21 426 867 1564 1567 1231 1069 1022 839 821 957 818 560 538 504 451 313 328 264 138 10 0 1 2 0 6 2 0 0 0 0 0 0 0 0 0
0 0 0 0 0 0 9 71 737 1209 1564 1227 1126 1014 934 610 323 364 330 506 406 402 399 372 329 202 36 7 1 2 2 0 1 3 2 0 0 0 0 0 0 0 0
0 0 0 0 0 1 22 591 1126 1362 1323 1034 874 989 749 385 318 235 215 346 331 347 345 279 190 113 42 17 0 2 1 3 6 1 0 0 0 0 0 0 0 0 0
1 1 0 0 2 2 2 481 1607 1382 1066 906 664 669 500 411 352 173 169 261 216 174 176 174 123 33 51 24 10 2 5 7 8 0 0 0 0 0 0 0 7 0 0
2 2 0 3 3 5 2 62 1569 1292 941 771 643 428 385 298 257 130 139 172 121 105 72 67 74 78 63 35 27 24 22 19 33 2 1 0 0 0 0 0 4 3 2
1 1 0 4 6 6 4 4 908 1124 922 659 373 273 210 275 166 138 176 160 114 103 118 89 44 55 57 41 16 34 40 37 20 8 0 0 0 0 0 0 0 0 13
0 0 1 3 4 5 6 6 23 882 514 398 262 210 241 174 150 184 191 85 74 73 63 33 11 10 6 4 3 12 22 51 22 1 1 1 0 0 0 0 0 15 28
0 1 1 2 4 5 5 7 4 286 325 293 195 142 149 142 120 134 67 80 75 50 9 0 0 0 0 1 1 1 4 3 1 1 1 0 0 0 4 1 0 0 8
2 3 2 3 4 6 5 4 7 4 35 213 135 91 107 82 71 67 92 74 38 1 0 0 2 2 0 2 1 0 11 10 1 1 1 1 0 0 0 0 2 0 3
5 3 2 1 5 5 5 5 7 4 3 4 8 45 89 91 108 92 82 59 28 4 3 0 1 3 5 6 4 3 2 1 1 1 1 1 0 0 0 2 0 0 0
4 4 4 4 4 4 5 5 4 6 4 3 0 22 78 40 32 17 18 7 3 0 0 0 0 0 0 4 1 0 2 4 1 4 2 0 0 0 0 0 0 0 0
2 5 5 3 3 3 4 4 3 1 6 6 1 0 5 1 0 0 0 0 0 0 0 0 0 1 0 0 0 0 0 0 0 0 0 0 0 0 0 0 0 1 0
5 4 4 3 3 2 5 4 3 3 2 6 7 6 3 6 6 5 5 3 4 4 3 3 2 3 5 4 1 0 0 0 0 0 2 4 4 2 0 0 0 0 1
4 3 3 3 3 2 4 3 4 3 3 1 2 5 5 7 9 10 10 8 7 7 7 7 6 7 10 5 2 1 2 3 5 6 6 6 10 7 7 13 11 10 7
2 3 3 2 2 3 2 3 3 4 4 4 4 1 0 1 5 6 9 7 9 11 13 11 11 11 8 7 8 8 7 7 6 5 5 7 7 7 4 5 6 10 8
1 1 2 3 2 2 3 1 1 2 3 4 3 2 3 1 0 3 5 5 6 6 7 6 7 6 6 5 6 5 5 9 9 4 2 3 4 6 3 2 9 13 8
1 1 1 1 1 1 1 0 1 0 0 1 3 3 3 1 5 3 1 1 2 3 4 4 3 4 7 6 4 2 3 6 5 4 3 3 4 3 3 2 1 3 5
0 0 0 0 1 1 0 0 1 1 2 1 0 0 0 1 1 4 4 5 5 1 1 1 2 2 3 5 5 3 1 2 4 4 4 3 5 4 2 1 2 5 0
0 0 0 1 1 0 0 1 1 2 2 0 0 0 0 0 0 1 1 1 1 2 3 3 3 1 1 2 4 3 1 1 1 1 0 1 2 3 2 0 0 0 0
0 0 0 0 0 0 0 0 2 0 0 0 0 0 0 0 0 0 0 0 1 1 1 1 1 0 0 1 1 1 1 1 0 0 1 2 2 0 0 0 0 0 0
0 0 0 0 0 0 0 1 1 0 0 0 0 0 0 0 0 0 0 0 0 0 0 0 0 0 0 0 0 1 0 1 1 0 0 0 0 0 0 0 0 0 0
0 0 0 0 0 0 0 0 1 0 0 0 0 0 0 1 1 0 0 0 0 0 0 0 0 0 0 0 0 0 0 0 0 0 0 0 0 0 0 0 0 0 0
0 0 0 0 0 0 0 0 0 0 0 0 0 0 0 0 0 0 0 1 0 0 0 0 0 0 0 0 1 1 1 1 0 0 0 0 0 0 0 0 0 0 0

GFSMW_con_mlcape_096.txt.gz
CAPE
0 0 0 0 0 0 0 0 0 132 1247 1952 1916 1700 1630 1478 1302 1091 914 817 727 496 533 330 134 39 49 12 6 3 7 5 12 12 0 0 2 4 10 22 2 0 0
0 0 0 0 0 0 0 0 0 10 932 1622 1913 1779 1665 1526 1432 1197 999 986 860 649 645 470 247 101 43 21 13 4 22 6 14 6 0 0 1 0 1 0 0 0 0
0 0 0 0 0 0 0 0 0 8 641 1657 1889 1474 1430 1180 1062 1004 910 624 773 740 657 467 268 209 77 44 62 42 8 30 21 0 0 1 0 2 0 0 1 0 0
0 0 0 0 0 0 0 0 0 0 1195 1768 1709 1422 1321 1101 1025 998 669 366 412 642 674 432 339 257 144 119 91 30 1 1 2 1 0 0 0 0 0 1 0 0 0
0 0 0 0 0 0 0 0 0 7 1308 1629 1591 1323 1254 1246 1035 899 0 3 284 479 498 412 309 273 145 102 116 34 9 2 2 2 0 0 0 0 0 0 0 0 0
0 0 0 0 1 1 0 2 1 323 1441 1596 1453 1136 1128 972 1001 878 259 137 343 397 443 428 315 197 151 123 106 39 5 4 4 1 1 0 0 0 0 0 1 1 0
0 0 0 0 2 5 3 5 3 279 1474 1448 1282 1064 1022 746 827 812 666 440 467 363 379 297 218 180 154 147 55 34 6 7 4 2 1 0 0 0 0 0 1 0 0
1 0 0 1 2 5 5 5 4 10 1302 1133 1014 821 558 480 486 346 277 268 307 277 251 209 167 161 128 69 46 15 4 3 9 1 0 0 0 0 0 0 0 0 0
1 0 0 1 3 4 6 5 8 1 893 908 615 409 348 418 302 131 55 54 157 141 135 108 106 140 86 66 61 49 26 5 2 1 0 2 0 0 0 0 0 0 0
0 0 0 2 3 3 4 5 6 7 788 615 404 294 267 253 152 63 1 43 82 70 40 14 37 128 124 97 51 26 20 8 20 14 0 1 1 1 1 0 0 0 0
2 1 1 2 3 3 5 5 6 8 9 338 302 274 229 126 53 16 0 6 4 7 52 60 71 68 56 15 8 4 7 7 15 12 10 1 1 1 1 0 0 0 0
0 0 1 2 3 5 5 5 6 8 7 5 230 199 90 111 39 20 0 2 5 28 35 38 39 1 0 1 1 1 0 2 1 1 29 1 1 1 1 0 0 0 0
0 0 1 3 5 4 4 4 4 8 8 3 11 105 105 59 37 26 9 5 3 7 6 0 1 1 2 0 2 6 2 1 1 28 1 1 1 1 1 0 0 0 0
0 0 1 4 4 4 4 4 4 4 3 8 2 1 1 26 30 6 3 4 3 1 0 0 0 0 0 0 1 6 0 0 0 1 1 1 1 1 1 0 0 0 0
2 2 3 4 4 4 4 4 4 3 4 1 5 8 6 5 1 0 0 0 0 0 0 0 0 0 0 0 0 0 0 0 0 0 0 0 0 0 1 0 0 0 0
6 6 2 3 3 3 3 4 4 4 4 4 4 3 3 3 4 10 4 2 3 3 3 3 3 2 5 5 1 0 0 0 0 0 1 3 1 0 0 0 0 0 0
5 5 3 3 3 2 4 3 3 3 4 5 5 5 1 3 0 1 7 8 8 7 7 8 8 8 11 6 3 1 2 3 5 5 4 2 6 10 6 9 7 6 4
2 3 3 2 2 2 2 3 2 3 4 4 2 4 2 2 0 0 5 7 10 13 13 12 12 12 10 5 5 5 6 5 5 7 8 7 7 7 5 4 8 12 8
1 1 1 1 2 1 1 1 0 2 2 3 5 4 3 3 1 1 0 2 5 7 8 6 7 9 8 4 4 3 3 8 8 4 3 4 5 4 4 3 9 14 13
0 0 0 1 1 2 1 0 0 0 0 1 2 3 3 4 1 1 5 5 4 3 3 4 4 4 6 6 3 2 5 5 5 4 4 4 4 4 3 5 5 4 5
0 0 0 2 2 1 1 0 1 0 1 1 1 1 2 3 1 2 2 2 3 3 4 5 4 3 3 4 4 3 2 4 6 5 5 2 5 6 4 0 0 1 0
0 0 0 0 1 0 1 0 1 1 1 0 0 1 1 1 1 2 1 1 2 1 1 2 3 1 1 4 6 4 3 2 4 4 1 2 3 4 4 4 4 0 0
0 0 0 0 0 0 1 0 1 0 0 0 0 0 0 0 0 0 0 0 0 1 1 1 1 1 1 1 3 3 3 2 0 2 3 3 1 0 0 0 0 0 0
0 0 0 0 0 0 0 0 1 0 0 0 0 1 1 0 0 1 0 0 0 0 0 0 0 0 0 0 1 1 0 1 0 0 1 1 0 0 0 0 0 0 0
0 0 0 0 0 0 0 0 0 0 0 0 0 0 0 1 1 1 1 1 1 0 0 0 0 0 0 1 1 0 0 0 0 0 0 0 0 0 0 0 0 0 0
0 0 0 0 0 0 0 0 0 0 0 0 0 0 0 0 0 1 0 1 2 1 1 1 0 1 1 1 1 1 1 0 0 0 0 0 0 0 0 0 0 0 0

GFSMW_con_mlcape_099.txt.gz
CAPE
0 0 0 0 0 0 0 0 0 0 0 758 895 1017 1326 1390 1325 1178 1026 1072 902 684 541 374 257 236 190 128 50 2 4 16 20 28 11 7 7 3 0 22 45 15 6
0 0 0 0 0 0 0 0 0 0 0 131 1189 1252 1243 1456 1553 1349 1127 1048 851 630 488 434 304 261 198 131 83 32 3 15 20 17 7 5 0 1 11 35 25 9 0
0 0 0 0 0 0 0 0 0 0 0 1 1167 1616 1530 1609 1469 1437 1261 1117 931 677 577 528 370 293 246 148 101 61 12 4 20 7 8 2 3 1 1 6 15 3 0
0 0 0 0 0 0 0 0 0 0 0 0 868 1528 1322 1336 1546 1502 1373 1274 847 605 439 436 412 304 224 156 124 80 32 38 22 27 14 1 0 0 0 1 1 1 4
0 0 0 0 0 0 0 0 0 1 1 3 470 1633 1425 1572 1568 1541 1243 1085 860 687 134 0 154 314 280 181 130 70 66 64 46 13 4 1 0 0 0 0 0 1 1
0 0 0 0 0 0 0 1 2 3 1 28 504 1554 1473 1464 1489 1313 1117 1272 808 126 1 2 223 257 227 226 176 109 73 73 35 10 2 1 0 0 0 0 2 1 1
0 0 0 0 1 0 2 4 4 4 4 13 1018 1575 1443 1444 1434 1263 1058 876 328 30 2 73 393 330 278 194 199 115 113 68 36 5 5 0 0 1 0 3 0 0 1
0 0 0 1 2 2 3 5 6 5 5 5 1266 1328 1214 1139 1265 1271 516 393 230 164 170 305 432 414 277 184 99 91 85 103 24 7 2 1 0 0 0 1 1 1 0
0 0 0 0 2 3 3 4 5 5 5 8 1089 1027 859 726 733 1044 872 434 367 322 262 323 283 265 211 138 96 50 117 76 44 24 8 5 2 0 0 0 0 0 1
0 0 0 1 1 3 3 4 4 5 5 10 792 633 580 526 373 329 261 240 208 96 50 152 195 155 131 223 147 49 36 55 46 25 5 3 1 1 0 0 0 0 0
1 0 0 0 2 2 3 4 5 6 8 8 228 401 337 235 173 211 206 155 60 0 60 50 71 108 162 145 139 121 82 50 29 15 4 0 0 1 1 1 1 0 0
1 0 0 1 1 3 4 5 5 6 5 8 6 120 135 124 152 186 146 87 0 2 24 9 25 43 143 140 96 49 12 12 4 2 7 5 7 1 2 2 1 0 0
2 1 0 2 3 4 4 5 5 5 6 9 7 3 0 36 72 54 45 25 3 0 2 3 17 31 44 23 0 1 2 4 4 3 7 9 1 2 2 2 1 0 0
4 2 1 3 3 3 4 4 4 3 4 6 7 5 6 6 1 22 11 1 0 0 3 6 1 0 0 1 1 1 1 12 9 1 2 4 10 0 1 1 1 1 0
4 5 4 3 3 3 4 4 4 3 3 4 8 8 7 4 10 2 0 1 0 0 0 0 0 0 0 0 0 0 0 2 0 0 0 0 0 0 0 1 1 1 2
5 5 3 2 4 4 4 4 4 3 3 3 3 4 3 6 2 9 0 3 4 3 2 1 1 1 0 3 0 0 0 0 0 0 2 2 1 0 0 0 0 0 1
5 5 3 4 4 3 4 4 3 2 2 4 3 3 5 4 3 0 5 4 5 8 8 9 8 6 10 8 3 0 1 3 5 6 4 4 8 9 5 8 4 2 1
4 3 3 3 3 3 2 2 2 3 3 4 4 2 3 3 5 0 0 0 0 6 13 12 11 12 9 4 4 5 7 6 6 6 7 7 5 4 7 0 2 11 11
2 3 2 3 2 3 3 1 1 2 2 2 2 4 3 4 4 2 1 0 0 4 7 7 7 8 7 4 5 5 5 9 10 5 4 4 5 6 4 11 12 18 17
3 3 1 1 1 2 2 2 1 1 2 2 3 2 3 3 3 4 4 3 2 3 3 5 4 4 6 4 4 3 4 7 7 6 5 5 5 5 5 5 4 6 10
3 2 2 2 1 1 1 0 1 0 3 3 3 3 3 2 2 2 2 2 3 2 3 4 3 3 3 3 5 3 3 6 7 7 7 5 5 8 6 2 3 6 3
0 1 2 2 1 1 0 1 0 2 2 3 3 3 3 3 3 2 2 1 2 2 2 1 3 1 1 3 4 4 3 2 5 5 1 2 5 6 5 4 4 2 0
2 1 1 0 1 0 1 2 2 1 1 1 3 3 2 2 3 2 1 1 1 2 3 2 2 2 2 2 3 4 2 2 1 1 1 3 4 3 3 2 0 0 0
0 1 0 0 1 1 2 1 0 0 0 0 1 2 2 2 2 1 1 1 2 2 2 2 2 2 2 3 1 1 1 2 0 1 2 2 1 1 1 1 1 1 0
1 1 1 1 1 1 1 1 0 0 0 0 0 0 0 0 0 0 1 1 1 1 2 1 1 2 3 2 2 1 2 1 2 2 2 2 2 1 1 0 0 1 0
0 0 0 0 0 0 0 0 0 0 0 0 0 0 0 0 0 0 0 1 1 2 1 1 1 1 1 1 1 1 2 1 0 1 1 3 2 1 1 0 0 1 1

GFSMW_con_mlcape_105.txt.gz
CAPE
0 0 0 0 0 0 0 0 0 0 0 0 0 0 0 24 768 1234 1526 2124 2212 2255 2236 2066 1902 1724 1352 1689 1366 1100 1033 971 925 767 379 340 380 404 271 103 57 5 0
0 0 0 0 0 0 0 0 0 0 0 0 0 0 0 0 149 915 1329 1800 2220 2279 1984 1969 1911 1704 1505 1627 1377 1039 856 806 696 483 66 18 0 44 192 81 6 4 0
0 0 0 0 0 0 0 0 0 0 0 0 0 0 0 0 2 992 1216 1534 2065 2163 1908 1883 1995 1670 1484 1370 1251 1069 765 635 558 320 198 19 2 1 10 90 4 2 0
0 0 0 0 0 0 0 0 0 0 0 0 0 1 0 0 0 283 1125 1468 1682 1890 2056 2003 1732 1537 1425 1280 1201 1099 865 783 472 416 372 369 225 70 0 4 18 11 4
0 0 0 0 0 0 0 0 0 0 0 0 0 0 2 1 0 66 1082 1454 1814 1989 2023 2017 1727 1453 1203 1191 1207 1006 862 854 601 413 268 533 326 137 130 1 1 3 2
0 0 0 0 0 0 0 1 0 0 0 0 0 2 3 2 0 186 939 1550 1893 1749 1932 1753 1581 1351 1272 1124 1146 533 1053 942 729 555 435 373 224 123 181 125 48 8 2
0 0 0 0 0 0 0 1 1 0 0 0 2 3 3 2 5 38 643 1591 1799 1675 1505 1594 1310 1339 1287 437 64 1 648 978 859 597 487 260 338 162 147 122 112 1 3
0 0 0 0 0 0 0 1 1 0 0 2 3 3 4 5 3 4 619 1283 1791 1662 1406 1421 1254 1256 1121 558 577 946 1127 1074 792 624 531 307 234 169 160 123 123 3 0
0 0 0 0 0 0 0 3 1 0 1 4 4 4 4 5 34 571 904 1435 1861 1684 1334 1400 1218 1235 1093 944 840 628 589 765 835 814 477 245 119 113 109 92 24 14 5
0 0 0 0 0 0 0 2 0 2 2 3 5 5 6 8 331 916 1140 1447 1640 1715 1487 1373 1036 662 408 540 412 295 408 659 847 821 555 339 134 99 74 47 27 15 7
0 0 0 0 0 0 0 1 1 2 3 4 4 6 7 7 6 871 994 1221 1369 1339 1146 1185 782 652 417 98 85 100 124 459 556 347 281 211 133 105 92 52 36 9 3
0 0 0 0 0 0 0 1 1 2 1 3 5 3 6 6 9 2 148 964 1196 1091 912 799 692 600 388 345 79 35 77 235 383 293 175 157 79 107 102 51 11 4 6
0 0 0 0 0 0 1 1 0 2 2 3 4 2 5 5 9 7 5 380 679 818 725 713 585 570 417 365 237 5 1 183 330 295 190 76 129 88 90 60 34 39 62
0 0 0 0 0 0 0 1 2 2 4 3 4 1 5 4 8 7 5 13 10 385 511 479 434 290 287 335 334 250 219 177 184 154 161 157 80 45 32 16 17 19 16
1 0 0 1 0 0 0 1 2 1 2 4 4 4 2 3 3 9 7 2 9 3 1 51 28 72 51 71 139 59 38 57 65 7 0 0 0 0 0 5 17 14 6
1 0 1 2 1 1 1 3 2 3 2 4 4 3 4 3 4 5 6 1 4 6 12 6 7 0 3 1 0 0 0 0 0 0 0 0 1 1 0 0 0 0 1
1 2 1 1 2 3 0 3 1 2 1 3 2 3 3 3 3 4 5 3 4 0 3 5 7 13 9 2 1 0 0 0 2 3 2 1 3 6 3 4 2 1 0
1 3 3 4 3 3 2 2 1 0 2 2 2 1 1 1 2 3 4 6 5 3 1 0 2 4 7 6 5 2 6 8 10 9 9 5 6 7 4 3 1 7 6
2 0 3 3 2 1 2 3 1 0 1 2 1 0 1 2 2 3 4 4 3 5 6 2 0 2 2 1 4 6 10 11 13 6 6 6 6 4 4 2 3 8 18
1 3 1 0 1 0 0 1 1 2 2 1 0 0 0 0 1 2 1 1 1 1 2 4 3 2 4 2 2 4 7 6 7 7 6 7 5 4 1 2 2 2 11
2 1 2 1 0 0 0 0 0 1 1 1 1 1 1 0 1 1 0 0 0 0 1 1 2 1 2 3 4 4 5 6 8 7 7 2 3 8 8 5 3 10 4
2 3 3 1 1 1 1 0 0 0 0 0 0 0 1 1 1 1 1 0 0 0 0 0 0 0 0 2 3 5 4 3 4 4 1 1 2 3 4 5 4 4 3
0 0 0 0 0 0 0 1 0 0 0 0 0 0 0 0 1 2 2 3 1 1 1 2 2 1 0 0 1 1 1 1 1 0 1 2 3 2 2 2 2 2 2
1 0 0 0 0 0 0 0 0 0 0 0 0 0 0 0 0 1 1 2 2 1 2 2 2 2 2 1 0 0 1 1 0 0 0 0 1 0 0 1 1 1 1
1 0 0 0 0 0 0 0 0 0 0 0 0 0 0 0 0 0 0 1 1 1 1 1 1 2 2 1 2 2 0 0 0 0 0 0 0 0 0 0 0 0 0
1 0 0 0 0 0 0 0 0 0 0 0 0 0 0 0 0 0 0 0 0 0 1 2 0 1 0 0 0 0 0 0 0 0 0 0 0 0 0 0 0 0 0

GFSMW_con_mlcape_108.txt.gz
CAPE
2 0 0 0 0 0 0 0 0 0 0 0 0 0 0 0 0 26 1010 1834 1975 1972 1920 2049 2010 1866 1806 1719 1937 1621 1449 1319 1267 1010 1050 781 668 681 571 329 181 58 6
2 0 0 0 0 0 0 0 0 0 0 0 0 0 0 0 0 0 1 877 1368 1662 1907 2044 1980 1774 1518 1452 1705 1320 1208 1094 943 823 588 339 194 129 415 377 72 8 1
10 0 0 0 0 0 0 0 0 0 0 0 0 0 0 0 0 0 0 0 1259 1426 1627 2012 1986 1531 878 160 1400 1255 1092 921 951 614 425 111 59 48 82 225 113 0 1
0 0 0 0 0 0 0 0 0 0 0 0 0 0 0 1 0 0 0 0 1125 1293 1685 1705 1784 1461 1010 1030 635 1130 1097 786 769 799 623 435 288 84 21 80 125 2 2
0 0 0 0 0 0 0 0 0 0 0 0 0 0 1 1 0 0 0 0 3 1274 1425 1649 1640 1594 1209 620 1097 1079 974 709 600 711 721 573 558 547 227 15 12 10 1
0 0 0 0 0 0 0 0 0 0 0 0 0 0 1 2 3 3 0 0 1 192 1158 1331 1794 1722 1413 1273 1078 227 787 800 781 813 768 539 497 642 318 158 27 0 2
0 0 0 0 0 0 0 0 0 0 0 0 0 1 2 3 4 3 4 0 0 126 412 908 1687 1731 1391 1196 1042 670 326 731 851 565 471 637 470 505 357 222 106 4 3
0 0 0 0 0 0 0 0 0 0 0 0 1 1 2 2 2 3 3 3 0 27 470 524 1290 1359 1395 1317 1178 963 728 583 530 169 558 699 531 519 356 273 157 24 0
0 0 0 0 0 0 0 0 0 0 1 1 1 2 2 3 4 4 2 4 2 0 849 1320 1242 1258 1305 1290 848 481 404 35 62 12 0 509 492 411 459 245 166 41 0
0 0 0 0 0 0 0 0 0 0 2 1 0 2 3 2 3 4 7 4 29 547 1006 1227 1226 1195 1231 1148 802 649 517 754 910 768 628 461 477 329 325 229 144 51 9
0 0 0 0 0 0 0 0 0 0 3 2 0 2 3 4 3 7 7 8 2 650 1046 1212 1226 1097 1092 1063 1026 880 784 491 611 587 386 388 378 242 195 186 154 53 30
0 0 0 0 0 0 1 0 0 1 2 2 1 1 3 4 5 7 7 9 8 10 749 992 962 1028 821 712 718 690 577 445 268 192 335 156 342 197 161 135 66 23 7
0 0 0 0 0 0 0 0 0 1 1 2 2 3 5 5 5 7 6 6 5 1 6 355 553 564 409 359 367 305 257 93 24 24 41 201 182 115 134 60 49 35 25
0 0 0 0 0 0 0 0 0 0 1 1 2 4 4 5 5 4 5 6 6 3 7 8 192 311 315 348 183 34 13 11 8 66 110 167 116 43 34 55 25 25 40
0 0 0 1 2 1 1 0 0 0 0 2 2 2 2 3 4 5 4 3 7 6 4 9 6 5 1 24 109 187 26 11 0 22 18 0 0 0 0 10 28 18 18
0 1 3 2 5 3 1 0 1 0 0 1 2 1 2 2 4 4 5 4 5 4 5 5 13 11 14 13 0 144 156 33 0 0 0 2 2 1 1 0 0 0 0
1 1 1 4 3 1 2 2 1 0 0 0 2 1 1 2 2 2 4 5 6 6 5 4 3 5 6 10 7 0 0 0 1 3 2 2 5 4 3 4 4 3 6
1 3 3 2 1 0 1 1 0 0 0 1 1 1 1 1 0 1 1 2 2 4 6 4 5 2 3 1 3 8 12 13 14 9 9 7 7 6 3 3 2 5 4
1 0 0 1 0 0 0 0 0 0 1 2 1 1 0 0 0 0 0 0 0 2 3 3 4 5 4 3 1 2 8 13 13 7 6 6 9 6 6 4 2 5 9
0 1 0 0 0 0 0 0 0 1 1 1 1 0 0 1 1 0 0 0 0 0 0 1 0 2 4 5 4 1 2 7 7 6 6 6 7 3 2 2 1 2 7
1 0 0 0 0 0 0 0 0 0 0 0 0 1 1 1 1 1 0 0 0 1 1 1 0 0 0 1 4 4 4 4 4 4 5 2 5 6 7 5 4 8 3
1 0 0 0 0 0 0 0 0 0 0 0 0 0 0 0 1 1 1 1 1 1 0 1 1 1 0 2 2 1 2 1 1 1 0 1 3 3 4 4 4 4 2
0 0 0 0 0 0 0 0 0 0 0 0 0 0 0 0 0 0 0 1 1 2 1 3 2 1 0 0 0 0 0 0 0 0 0 2 2 2 3 4 2 0 2
0 0 0 0 0 0 0 0 0 0 0 0 0 0 0 0 0 0 0 0 0 1 1 0 0 1 2 1 0 0 0 0 0 0 0 0 0 0 0 0 0 0 1
0 0 0 0 0 0 0 0 0 0 0 0 0 0 0 0 0 0 0 0 0 0 0 0 0 0 0 0 0 0 0 0 0 0 0 0 0 0 0 0 0 0 0
0 0 0 0 0 0 0 0 0 0 0 0 0 0 0 0 0 0 0 0 0 0 0 0 0 0 0 0 0 0 0 0 0 0 0 0 0 0 0 0 0 0 0

GFSMW_con_mlcape_111.txt.gz
CAPE
2 0 0 0 0 0 0 0 0 0 0 0 0 0 0 0 0 0 0 0 38 1206 1612 1645 1493 1409 1501 1523 1347 1450 1518 1321 1304 1155 962 708 764 778 723 644 545 380 127
3 0 0 0 0 0 0 0 0 0 0 0 0 0 0 0 0 0 0 0 0 0 742 1556 1615 1682 1393 1352 1218 1090 1158 1206 1274 1100 784 681 540 546 691 539 459 298 69
0 0 0 0 0 0 0 0 0 0 0 0 0 0 0 0 0 0 0 0 0 0 0 555 1424 1709 1527 1250 1058 999 695 593 929 693 545 404 296 177 154 398 296 206 35
0 0 0 0 0 0 0 0 0 0 0 0 0 0 0 0 0 0 0 0 0 0 0 4 786 1149 1448 1118 823 437 17 0 9 437 509 155 49 58 25 94 294 199 27
0 0 0 0 0 0 0 0 0 0 0 0 0 0 0 1 1 1 1 0 0 0 0 0 31 708 957 902 627 162 0 25 273 0 167 456 218 114 41 7 123 170 50
0 0 0 0 0 0 0 0 0 0 0 0 0 0 1 1 3 2 4 3 1 0 0 0 0 521 596 674 646 449 210 326 293 257 537 481 431 476 279 90 81 86 41
0 0 0 0 0 0 0 0 0 0 0 0 0 1 1 3 4 5 4 4 3 4 2 0 0 56 646 488 500 641 624 546 549 631 487 431 402 329 286 357 170 69 3
0 0 0 0 0 0 0 0 0 0 0 0 1 0 0 2 3 3 3 3 3 3 1 2 0 4 103 324 494 601 435 433 590 598 543 516 399 320 331 389 249 100 24
0 0 0 0 0 0 0 0 0 0 0 1 1 0 1 2 4 3 2 3 4 3 3 2 1 0 0 5 330 380 354 352 260 212 476 415 412 410 439 363 245 129 11
0 0 0 0 0 0 0 0 0 1 1 1 1 2 2 2 2 3 3 4 3 3 5 2 0 19 2 0 331 508 574 552 223 6 7 202 367 399 441 275 193 150 64
0 0 0 0 0 0 0 0 0 1 1 1 1 3 3 2 2 3 3 4 4 4 10 1 162 370 457 319 368 582 604 589 357 235 30 31 90 200 280 215 174 109 71
0 0 0 0 0 0 0 0 0 1 1 1 1 2 1 2 3 3 3 3 5 5 6 7 4 450 353 196 374 482 553 487 445 346 153 76 154 47 186 182 165 82 61
0 0 0 0 0 0 0 1 0 1 1 1 2 2 2 2 4 4 3 4 5 6 6 9 3 0 217 262 590 605 686 642 588 362 209 152 115 137 132 116 77 60 66
0 0 0 0 0 0 1 1 0 0 1 1 2 2 2 2 2 2 3 4 5 6 7 8 9 9 3 0 1 357 409 261 216 96 72 14 3 8 106 76 68 64 64
0 0 0 0 1 0 1 0 0 0 0 1 1 1 0 2 1 2 2 2 4 4 4 5 4 7 4 13 11 0 78 80 63 11 0 0 1 42 24 47 51 34 23
0 0 1 2 1 1 1 0 0 0 0 1 1 0 0 1 1 0 2 2 3 3 2 5 6 8 8 3 7 0 4 1 0 0 0 3 0 0 0 0 0 0 16
1 1 3 1 2 1 1 1 0 0 0 1 1 0 0 1 0 0 0 1 1 1 4 3 4 7 6 4 0 9 12 5 2 1 3 3 7 4 2 4 5 5 4
0 1 0 0 0 0 0 0 0 0 0 1 1 1 2 2 1 1 1 1 0 0 0 1 2 4 5 3 0 0 3 7 8 8 7 6 7 7 3 2 1 6 8
1 0 1 0 0 0 0 0 0 0 1 1 2 1 1 2 1 1 0 0 0 0 0 0 0 1 3 5 5 0 0 2 5 3 4 4 8 7 6 3 1 9 14
0 0 0 0 0 0 0 0 0 0 0 0 0 0 0 0 1 2 0 0 0 0 0 0 0 1 0 2 4 2 2 1 1 1 1 2 5 2 2 4 5 2 11
0 0 0 0 0 0 0 0 0 0 0 0 0 0 0 0 0 0 0 0 0 0 1 1 0 1 0 0 3 3 2 3 2 2 1 1 1 4 7 5 4 8 4
0 0 0 0 0 0 0 0 0 0 0 0 0 0 0 0 0 0 0 0 0 0 0 0 1 1 1 2 1 1 1 0 0 0 0 1 2 3 4 5 5 3 1
0 0 0 0 0 0 0 0 0 0 0 0 0 0 0 0 0 0 0 0 0 0 0 0 0 0 0 0 0 1 0 0 0 0 1 0 0 0 1 4 2 1 2
0 0 0 0 0 0 0 0 0 0 0 0 0 0 0 0 0 0 0 0 0 0 0 0 0 0 0 0 0 0 1 0 1 0 0 0 0 0 0 0 0 0 2
0 0 0 0 0 0 0 0 0 0 0 0 0 0 0 0 0 0 0 0 0 0 0 0 0 0 0 1 0 0 0 0 0 0 0 0 0 0 0 0 0 0 0
0 0 0 0 0 0 0 0 0 0 0 0 0 0 0 0 0 0 0 0 0 0 0 0 0 0 2 5 0 0 0 0 0 0 0 0 0 0 0 0 0 0 0

GFSMW_con_mlcape_114.txt.gz
CAPE
0 0 0 0 0 0 0 0 0 0 0 0 0 0 0 0 0 0 0 0 0 0 0 0 912 1084 984 968 902 880 1002 1058 1073 932 852 724 763 785 689 698 635 450 302
0 0 0 0 0 0 0 0 0 0 0 0 0 0 0 0 0 0 0 0 0 0 0 0 0 398 1075 1072 808 798 714 738 671 827 834 668 603 544 620 609 615 503 342
0 0 0 0 0 0 0 0 0 0 0 0 0 0 0 0 0 0 0 0 0 0 0 0 0 0 223 1016 1154 710 659 544 416 349 190 127 312 390 317 501 440 354 247
0 0 0 0 0 0 0 0 0 0 0 0 0 0 0 0 0 0 0 0 0 0 0 0 0 0 0 71 832 818 648 484 146 0 0 0 35 94 75 128 412 307 242
0 0 0 0 0 0 0 0 0 0 0 0 0 0 0 1 0 1 2 0 0 0 0 0 0 0 0 0 520 745 372 196 11 0 0 0 0 23 13 21 80 203 143
0 0 0 0 0 0 0 0 0 0 0 0 0 1 2 3 3 2 4 3 1 0 0 1 2 2 0 0 86 587 351 35 6 0 1 39 78 25 0 11 18 35 63
0 0 0 0 0 0 0 0 0 0 0 0 0 0 0 2 5 4 5 5 5 4 3 2 3 2 3 1 0 240 123 85 24 4 6 36 66 65 106 67 17 1 20
0 0 0 0 0 0 0 0 0 0 0 0 0 1 0 2 2 3 4 4 4 3 3 3 4 5 3 3 1 120 232 146 150 173 84 17 122 213 206 187 94 4 24
0 0 0 0 0 0 0 0 0 0 0 0 1 2 2 2 3 1 2 2 2 2 3 5 4 5 3 2 1 15 190 337 256 52 158 272 272 183 166 218 112 91 8
1 0 0 0 0 0 0 0 0 1 2 1 2 1 1 1 2 2 3 3 4 4 5 5 4 5 4 1 1 0 95 218 39 66 230 283 228 217 198 196 96 74 36
0 0 0 0 0 0 0 0 0 0 2 1 0 0 0 0 2 2 2 3 4 4 4 5 5 6 6 2 0 0 35 201 101 51 98 251 250 284 254 245 180 133 95
0 0 0 0 0 0 0 0 0 1 2 1 0 0 0 0 0 2 2 3 4 3 4 4 5 8 4 1 70 23 21 72 99 144 45 41 156 231 212 210 224 124 66
0 0 0 0 0 0 0 1 0 1 1 0 0 0 0 0 0 1 1 2 2 3 3 4 6 7 9 7 3 53 123 49 106 150 95 27 4 19 58 139 126 121 48
0 0 0 0 1 1 0 0 1 1 1 0 1 1 1 1 0 1 1 1 2 2 2 3 4 5 5 7 9 1 0 65 151 120 110 88 5 0 31 44 3 0 12
0 0 1 0 1 2 1 1 1 1 0 0 1 1 1 2 1 1 1 0 0 1 1 2 2 3 3 5 6 1 0 0 0 83 52 46 83 18 47 17 3 38 61
1 2 1 0 1 1 0 0 0 1 1 1 2 1 1 1 1 1 1 1 1 0 0 1 1 3 4 3 6 8 2 1 2 0 0 1 0 0 0 0 6 24 20
0 1 2 2 1 0 0 2 0 1 1 1 1 2 2 2 1 1 1 0 0 0 1 1 0 1 2 5 4 4 7 13 5 10 10 6 8 5 0 0 0 0 0
0 1 0 0 0 0 0 0 0 1 0 0 0 1 0 1 2 2 2 0 0 0 0 0 0 0 1 3 4 4 3 0 0 1 5 6 8 7 4 4 2 4 6
0 0 0 0 0 0 0 0 0 0 0 0 0 0 0 0 0 0 1 1 0 1 0 0 0 0 0 1 2 2 3 4 1 2 2 4 5 2 2 5 4 8 14
1 0 0 0 0 1 0 0 0 0 0 0 0 0 0 0 0 0 0 0 0 0 0 1 0 1 0 2 3 0 1 2 2 3 1 3 3 5 3 1 4 6 13
1 0 0 1 1 0 0 0 0 0 0 1 0 0 0 0 0 0 0 0 0 0 0 0 0 0 0 0 3 3 1 1 1 2 1 0 2 4 5 3 4 5 3
0 0 0 0 0 0 0 0 0 0 0 0 0 0 0 0 0 0 0 0 0 0 0 0 0 0 0 0 2 3 2 2 1 1 0 0 1 2 4 3 3 1 2
0 0 0 0 0 0 0 0 0 0 0 0 0 0 0 0 0 0 0 0 0 0 0 0 0 0 0 0 0 1 1 1 1 1 2 1 1 1 0 1 2 0 2
0 0 0 0 0 0 0 0 0 0 0 0 0 0 0 0 0 0 0 0 0 0 0 0 0 0 0 0 0 0 0 0 0 0 0 0 0 0 0 0 0 0 0
0 0 0 0 0 0 0 0 0 0 0 0 0 0 0 0 0 0 0 0 0 0 0 0 0 0 0 2 1 0 0 0 0 0 0 0 0 0 0 0 0 0 0
0 0 0 0 0 0 0 0 0 0 0 0 0 0 0 0 0 0 0 1 0 0 0 2 3 0 1 1 3 1 0 0 0 0 0 0 0 0 0 0 0 0 0

GFSMW_con_mlcape_117.txt.gz
CAPE
0 0 0 0 0 0 0 0 0 0 0 0 0 0 0 0 0 0 0 0 0 0 0 0 0 0 7 518 557 524 225 87 439 601 454 351 394 485 597 615 524 430 341
0 0 0 0 0 0 0 0 0 0 0 0 0 0 0 0 0 0 0 0 0 0 0 0 0 0 0 0 424 660 724 522 523 474 390 332 151 186 361 340 349 413 408
0 0 0 0 0 0 0 0 0 0 0 0 0 0 0 0 0 0 0 0 0 0 0 0 0 0 0 0 0 205 541 735 479 580 427 98 172 67 0 228 108 342 306
0 0 0 0 0 0 0 0 0 0 0 0 0 0 0 0 0 0 0 0 0 0 0 1 2 2 0 0 0 0 88 574 391 50 142 2 0 0 0 0 91 181 254
1 0 0 0 0 0 0 0 0 0 0 0 0 0 0 2 2 1 1 1 1 0 0 0 1 1 1 0 1 0 0 213 460 118 0 1 0 0 0 0 0 1 199
1 3 2 0 0 0 0 0 0 0 0 0 0 1 0 1 3 4 4 3 1 2 2 2 2 2 3 2 1 2 4 4 136 111 81 2 0 0 0 0 0 0 14
1 2 1 1 0 0 0 0 0 0 0 0 0 0 1 2 4 5 4 5 4 3 2 2 3 4 4 3 4 3 2 11 36 38 35 15 0 0 0 0 0 0 4
1 1 1 0 0 0 0 0 0 1 1 1 3 0 1 2 2 2 2 3 3 3 2 3 3 3 4 5 4 4 2 2 13 2 0 0 2 10 33 3 1 2 17
0 1 1 1 1 1 0 0 0 1 2 2 1 1 1 1 2 1 2 2 3 2 2 3 4 3 4 4 3 4 2 1 10 4 1 1 2 21 47 92 31 53 36
0 0 0 0 0 0 0 0 0 2 1 0 0 0 1 1 1 2 1 2 3 3 3 3 3 4 4 5 5 6 3 2 17 4 10 30 25 20 24 83 148 108 73
4 1 0 0 0 0 0 0 1 0 1 0 1 1 1 1 0 1 1 2 2 2 3 3 4 3 5 6 6 6 4 1 1 8 20 40 37 28 84 119 123 110 96
2 1 0 0 0 1 0 0 1 0 1 0 1 0 0 1 1 0 1 1 1 2 2 3 3 5 5 5 7 8 3 3 1 2 19 46 41 14 31 96 79 91 84
0 0 0 1 1 1 1 1 0 0 0 1 0 1 1 1 1 0 0 2 1 1 1 2 2 5 4 6 7 11 6 2 2 2 71 44 44 71 146 169 131 85 53
0 0 1 1 0 1 0 1 0 0 0 1 1 2 1 1 2 1 1 1 1 1 1 1 1 2 2 3 4 10 8 7 4 8 58 62 55 15 20 127 139 97 76
0 0 1 1 1 1 1 1 1 1 0 1 1 2 1 0 0 0 1 1 1 1 1 0 0 1 1 2 4 6 9 11 5 0 1 1 14 3 0 10 59 48 28
0 0 1 1 1 1 0 0 1 1 2 4 3 2 3 2 3 1 1 0 1 0 0 1 0 0 1 2 3 3 6 5 8 6 3 5 5 1 0 0 0 6 3
0 0 0 1 1 0 0 0 0 0 0 0 0 0 0 0 0 0 0 1 2 1 1 1 1 0 1 3 3 2 1 4 5 5 3 0 3 5 5 0 0 0 0
1 0 1 0 0 0 0 0 0 0 0 0 0 0 0 0 0 0 0 0 0 1 1 1 1 1 0 2 3 1 0 0 0 2 5 4 1 1 3 5 3 9 13
0 0 1 1 0 0 0 0 0 0 0 0 0 0 0 0 0 0 0 0 0 0 0 0 1 2 1 3 2 0 1 1 0 0 0 2 4 3 0 2 7 5 8
0 0 0 0 0 0 0 0 0 0 1 0 0 0 0 0 0 0 0 0 0 0 0 0 0 0 1 3 3 1 1 1 1 0 0 0 2 3 4 0 0 1 3
0 0 0 0 0 0 0 0 0 0 0 0 0 0 0 0 0 0 0 0 0 0 0 0 0 0 0 0 1 2 1 2 2 0 0 0 1 1 2 2 2 2 1
0 0 0 0 0 0 0 0 0 0 0 0 0 0 0 0 0 0 0 0 0 0 0 0 0 0 0 0 0 0 0 0 3 2 2 1 2 2 1 1 2 2 2
0 0 0 0 0 0 0 0 0 0 0 0 0 0 0 0 0 0 0 0 0 0 0 0 0 0 0 0 0 0 0 0 0 1 0 0 1 1 1 2 1 0 1
0 0 0 0 0 0 0 0 0 0 0 0 0 0 0 0 0 0 0 0 0 0 0 0 0 0 0 0 0 0 0 0 0 0 0 0 0 0 0 0 1 0 0
0 0 0 0 0 0 0 0 0 0 0 0 0 0 0 0 0 0 0 0 0 0 0 0 0 0 0 0 2 1 0 0 0 0 0 0 0 0 0 0 0 0 1
0 0 0 0 0 0 0 0 0 0 0 0 0 0 0 0 0 0 0 0 0 0 0 0 0 0 0 0 0 0 0 0 0 0 0 0 0 0 0 0 0 0 0

GFSMW_con_mlcape_120.txt.gz
CAPE
0 0 0 0 0 0 0 0 0 0 0 0 0 0 0 0 0 0 0 0 0 0 0 0 0 0 0 0 0 357 182 16 85 123 51 148 133 114 301 299 283 283 229
0 0 0 0 0 0 0 0 0 0 0 0 0 0 0 0 0 0 0 0 0 0 0 0 0 0 0 0 0 0 369 282 133 23 34 0 0 0 160 148 81 233 180
0 0 0 0 0 0 0 0 0 0 0 0 0 0 0 0 0 0 0 0 0 0 0 0 1 1 1 0 0 0 0 273 295 326 267 105 43 28 13 0 10 208 128
2 1 0 0 0 1 0 0 0 0 0 0 0 0 0 0 0 0 0 0 0 0 0 1 0 1 1 1 1 1 0 0 64 196 290 154 27 81 8 0 76 69 41
3 2 3 1 0 0 0 0 0 0 0 0 0 2 1 1 2 1 2 1 0 1 0 1 2 2 2 2 1 1 2 1 0 11 4 1 10 0 0 2 1 10 27
2 3 2 1 2 0 0 0 0 0 0 1 0 1 2 2 2 3 2 3 1 1 1 1 2 2 3 3 2 3 2 2 1 5 15 3 4 0 0 0 0 0 0
0 0 1 1 0 0 0 0 0 0 1 1 0 0 1 2 3 3 4 5 4 3 2 1 2 3 2 3 3 4 4 3 2 1 5 19 2 1 0 0 0 0 0
2 1 1 0 1 0 0 0 0 0 0 1 0 2 2 1 1 1 2 2 2 2 1 1 2 2 2 3 3 4 3 3 2 2 0 24 17 1 0 0 0 0 0
2 3 3 3 2 2 1 0 1 1 0 1 1 1 1 1 1 1 1 1 1 1 1 1 2 2 2 2 2 3 5 3 3 2 2 15 23 9 2 0 0 23 16
2 0 0 0 1 2 2 1 2 2 1 1 1 1 1 1 1 1 1 1 2 1 2 2 2 2 2 2 3 5 5 8 6 3 2 7 15 4 1 1 14 20 38
1 2 0 0 0 0 0 2 1 1 0 0 1 1 1 1 1 1 2 2 1 1 1 2 2 1 2 3 3 5 6 7 2 3 3 15 20 13 4 8 35 37 38
0 0 0 0 0 0 1 0 0 0 0 1 0 0 1 2 1 1 1 1 1 1 1 1 1 1 2 2 4 8 8 7 6 3 2 4 21 10 2 4 23 54 80
0 0 0 0 1 1 1 1 0 0 0 0 1 0 1 1 1 0 1 1 1 1 1 1 1 2 2 2 3 3 6 6 6 7 4 6 7 5 2 26 58 50 32
0 0 0 1 1 1 1 1 1 1 0 1 1 2 1 2 1 1 1 2 1 1 1 1 2 3 3 1 2 3 6 6 6 6 7 9 6 4 4 42 53 68 58
0 0 0 1 1 0 0 0 1 1 0 0 0 0 0 1 1 1 0 1 1 1 1 1 1 2 1 3 2 2 3 5 7 5 5 4 5 2 4 3 43 73 127
0 0 1 0 1 1 1 1 1 0 0 0 0 0 0 0 0 0 0 0 0 1 1 0 0 1 1 4 3 1 2 3 4 6 4 3 3 4 1 4 2 0 52
0 0 0 0 1 0 0 0 0 0 0 0 0 0 0 0 0 0 0 0 0 0 1 0 0 0 1 3 1 2 1 2 2 2 2 3 2 4 4 2 3 8 8
0 1 0 0 0 0 0 0 0 0 0 0 0 0 0 0 0 0 0 0 0 0 0 0 0 0 0 2 1 1 1 1 1 1 0 0 1 2 4 2 2 6 9
0 0 0 0 0 0 0 0 0 0 0 0 0 0 0 0 0 0 0 0 0 0 0 0 0 0 0 1 2 1 1 1 1 1 1 1 1 2 2 4 4 1 0
0 0 0 0 0 0 0 0 0 0 0 0 0 0 0 0 0 0 0 0 0 0 0 0 0 2 0 2 1 0 1 1 1 0 1 1 1 1 2 1 3 3 4
0 0 0 0 0 0 0 0 0 0 0 0 0 0 0 0 0 0 0 0 0 0 0 0 0 0 2 0 0 0 1 2 1 1 2 0 2 2 2 1 1 3 2
0 0 0 0 0 0 0 0 0 0 0 0 0 0 0 0 0 0 0 0 0 0 0 0 0 0 0 0 0 0 0 0 1 2 1 0 0 0 1 1 2 2 0
0 0 0 0 0 0 0 0 0 0 0 0 0 0 0 0 0 0 0 0 0 0 0 0 0 0 0 0 0 0 0 0 0 0 0 0 0 0 0 0 1 0 1
0 0 0 0 0 0 0 0 0 0 0 0 0 0 0 0 0 0 0 0 0 0 0 0 0 0 0 0 0 0 0 0 0 0 0 0 0 0 0 0 0 0 0
0 0 0 0 0 0 0 0 0 0 0 0 0 0 0 0 0 0 0 0 0 0 0 0 0 0 0 0 0 0 0 0 0 0 0 0 0 0 0 0 0 0 0
0 0 0 0 0 0 0 0 0 0 0 0 0 0 0 0 0 0 0 0 0 0 0 0 0 0 0 0 0 0 0 0 0 0 0 0 0 0 0 0 0 0 0

GFSMW_con_mlcape_123.txt.gz
CAPE
0 0 0 0 0 0 0 0 0 0 0 0 0 0 0 0 0 0 0 0 0 0 0 0 0 0 0 0 0 0 72 450 610 645 303 29 123 100 132 211 311 377 368
0 0 0 0 0 0 0 0 0 0 0 0 0 0 0 0 0 0 0 0 0 0 0 1 1 2 0 0 0 0 0 189 239 347 238 53 53 5 43 185 177 98 307
4 0 0 0 0 0 0 0 0 0 0 0 0 0 0 0 0 0 0 0 0 1 2 1 1 1 2 1 0 1 1 0 136 249 187 21 0 41 0 0 4 111 187
2 0 0 0 0 0 0 0 0 1 1 1 0 0 0 0 1 1 0 0 1 3 0 1 2 3 3 2 2 2 1 1 1 17 270 250 111 62 45 1 2 104 45
0 0 0 0 0 0 0 0 0 0 1 1 1 2 0 0 1 3 1 1 2 1 2 2 2 3 3 3 3 2 2 2 1 2 5 189 211 60 26 25 46 20 36
4 3 3 2 3 2 1 0 0 0 0 0 1 0 3 3 2 1 1 1 1 1 0 2 2 2 2 4 3 4 2 1 2 1 5 2 26 15 11 7 24 32 108
5 5 6 5 3 3 2 1 1 2 1 1 0 1 1 1 1 2 2 2 0 1 2 1 2 2 2 2 3 3 3 3 3 2 2 2 2 40 19 19 23 40 70
3 2 2 2 3 2 2 1 1 1 1 1 1 1 5 3 2 1 1 2 2 3 2 1 1 1 1 1 2 2 2 2 2 2 2 2 5 1 30 25 37 30 24
3 3 3 2 1 2 2 2 2 1 0 1 2 1 1 2 2 2 3 4 4 2 2 2 1 1 1 1 2 2 4 3 3 3 4 4 2 5 9 32 29 36 14
2 3 1 2 2 1 1 1 1 2 2 3 2 4 4 4 3 3 2 2 2 2 1 2 2 2 1 1 2 3 3 4 4 4 6 5 3 5 4 25 25 39 25
1 0 0 0 1 0 1 2 1 2 2 2 3 2 1 1 3 3 2 2 2 2 2 2 4 3 4 2 2 3 2 5 5 3 3 3 2 4 8 12 23 22 23
0 0 0 0 0 0 2 2 1 2 2 3 2 2 3 3 2 2 2 2 1 1 1 2 3 3 3 3 2 2 3 4 5 5 5 6 7 1 7 26 17 19 14
0 0 0 1 1 2 2 1 1 1 2 1 1 1 1 1 1 1 1 1 1 0 0 1 2 2 3 3 3 2 1 2 2 4 5 6 6 8 7 1 5 25 9
0 0 1 2 1 1 2 1 1 1 0 0 0 0 0 0 0 0 0 0 1 1 0 0 1 3 3 3 3 3 1 0 0 1 1 3 6 10 9 11 6 2 10
0 0 1 2 3 0 0 0 0 0 0 0 0 0 0 0 0 0 0 0 0 0 0 0 1 2 2 3 3 3 2 1 0 0 0 1 2 4 4 6 8 5 1
0 0 1 0 1 0 0 0 1 0 0 0 0 0 0 0 0 0 0 0 0 0 0 0 1 1 2 1 2 3 1 1 1 1 1 0 1 3 3 1 2 3 5
1 0 1 2 1 2 1 1 0 0 0 0 0 0 0 0 0 0 0 0 0 1 1 1 1 1 1 1 0 1 1 1 1 0 1 1 1 3 3 0 2 3 2
1 2 1 1 1 1 1 1 0 0 0 0 0 0 0 0 0 0 0 0 0 0 1 1 1 0 1 0 0 0 1 2 2 2 2 2 2 3 2 3 0 2 4
2 1 1 1 1 1 1 1 1 0 0 0 0 0 0 0 0 0 0 0 0 0 0 1 0 1 1 0 0 0 0 1 1 2 2 3 3 4 2 2 2 1 2
0 0 0 0 0 0 0 0 0 0 0 0 0 0 0 0 0 0 0 1 0 0 0 0 0 2 1 0 0 0 0 0 1 0 1 1 1 3 3 2 2 3 1
2 2 0 0 0 0 0 0 0 0 0 0 0 0 0 0 0 0 0 0 0 0 0 0 0 0 0 0 0 0 0 0 0 0 1 2 0 0 0 0 1 2 0
3 1 0 0 0 0 0 0 0 0 0 0 0 1 0 0 0 0 0 0 0 0 0 0 0 0 0 0 0 0 0 0 0 0 0 0 0 0 0 0 0 0 0
2 1 0 0 0 0 0 0 0 0 0 0 0 0 0 0 0 0 0 0 0 0 0 0 0 0 0 0 0 0 0 0 0 0 0 0 0 0 0 0 0 0 0
1 0 0 0 0 0 0 0 0 0 0 0 0 0 0 0 0 0 0 0 0 0 0 0 0 0 0 0 0 0 0 0 0 0 0 0 0 0 0 0 0 0 1
0 0 0 0 0 0 0 0 0 0 0 0 0 0 0 0 0 0 0 0 0 0 0 0 0 0 0 0 0 0 0 0 0 0 0 0 0 0 0 0 0 0 0
0 0 0 0 0 0 0 0 0 0 0 0 0 0 0 0 0 0 0 0 0 0 1 0 0 0 1 0 0 0 0 0 0 0 0 0 0 0 0 0 0 0 0

GFSMW_con_mlcape_126.txt.gz
CAPE
0 0 0 0 0 0 0 0 0 0 0 0 0 0 0 0 0 0 0 0 0 1 0 0 0 0 0 0 1 1 14 492 641 516 590 606 578 288 439 66 4 56 544
0 0 0 0 0 0 0 0 0 0 0 0 0 0 0 0 0 0 0 0 0 1 2 3 1 0 1 2 0 0 0 1 298 430 499 222 174 108 38 0 0 6 148
0 0 0 0 0 0 0 0 0 0 0 0 0 0 0 0 0 0 0 0 1 3 0 3 3 3 3 2 0 0 3 1 0 226 614 218 147 189 18 0 4 49 132
0 0 0 0 0 0 0 0 0 0 0 0 0 0 0 0 0 0 0 0 0 2 2 4 4 5 4 4 4 4 4 4 3 1 34 456 273 63 28 286 239 264 340
2 2 2 2 2 0 0 0 0 0 0 1 0 0 0 0 0 0 0 0 0 1 2 4 1 5 4 4 4 4 3 2 4 5 4 0 128 361 371 30 327 420 408
1 2 2 1 1 1 0 0 0 0 1 1 1 2 1 1 0 0 0 0 0 0 2 3 1 4 5 4 4 4 4 3 3 2 4 6 3 13 63 42 54 63 210
2 2 1 1 2 1 0 0 0 0 0 0 1 2 1 0 0 1 1 0 0 1 3 2 3 3 2 3 4 3 3 3 3 3 3 2 5 1 7 3 52 43 32
2 2 1 1 1 0 0 1 0 0 0 1 1 2 3 2 3 3 2 2 1 4 1 2 4 4 4 4 4 3 4 6 1 4 3 3 3 4 6 11 18 9 29
1 2 2 1 1 0 1 1 1 0 1 1 1 2 4 5 4 3 3 5 3 1 4 5 5 4 4 4 3 3 2 4 4 4 3 3 3 3 4 0 28 19 16
2 1 0 0 1 1 1 2 0 2 1 3 3 2 3 2 4 2 4 3 3 3 3 5 6 4 5 4 4 4 5 4 2 3 4 3 2 2 3 4 6 13 17
1 0 0 0 0 1 1 0 2 2 4 3 1 2 5 3 3 4 4 2 4 4 5 5 6 4 4 3 5 3 2 3 3 2 2 4 2 5 6 4 6 17 21
0 0 0 0 0 1 1 1 2 2 2 2 3 2 2 2 4 3 2 2 3 2 1 2 4 3 3 3 3 3 3 2 1 2 3 3 1 6 6 8 6 1 17
0 0 0 0 1 1 1 1 1 1 0 0 0 0 0 0 0 1 2 2 1 1 0 1 3 3 3 3 4 3 2 1 1 1 1 2 3 6 8 9 10 9 5
0 0 0 0 1 0 0 0 0 0 0 0 0 0 0 0 0 0 0 0 0 0 0 1 1 1 1 1 2 3 2 2 2 2 1 2 2 3 5 6 8 8 7
0 0 0 1 1 1 1 1 0 0 0 0 0 0 0 0 0 0 0 0 0 0 0 0 0 0 0 1 3 3 2 1 1 1 2 3 5 3 2 3 4 6 10
0 0 0 1 1 1 0 1 0 0 0 0 0 0 0 0 0 0 0 0 0 0 0 0 0 0 0 0 0 0 1 1 1 1 2 1 2 1 1 2 2 2 8
0 0 1 1 2 0 1 1 0 0 0 0 0 0 0 0 0 0 0 0 0 0 1 0 0 0 0 0 0 0 1 1 2 1 1 0 3 2 1 0 1 2 3
0 1 2 1 0 0 2 0 0 0 0 0 0 0 0 0 0 0 0 0 2 1 1 0 1 0 0 0 0 0 1 3 2 2 2 1 1 1 1 0 1 1 1
0 1 2 1 0 1 0 1 0 0 0 0 0 0 0 0 0 0 0 0 0 0 0 0 0 0 0 0 0 0 0 0 0 2 1 0 0 1 0 0 3 3 2
1 2 1 0 0 0 1 0 0 0 0 0 0 0 0 0 0 1 0 1 2 1 0 0 0 0 0 0 0 0 0 0 0 0 0 0 0 0 0 0 2 0 3
2 1 1 2 2 1 0 1 0 0 1 0 0 0 0 0 1 1 1 1 0 0 0 0 0 0 0 0 0 0 0 0 0 0 0 0 0 0 0 0 0 0 1
1 1 1 1 0 0 0 0 0 2 3 1 0 0 0 0 0 0 1 0 0 0 0 0 0 0 0 0 0 0 0 0 0 0 0 0 0 0 0 0 0 0 0
1 2 1 0 0 0 0 0 0 0 0 0 0 0 0 0 0 0 0 0 0 0 0 0 0 0 0 0 0 0 0 0 0 0 0 0 0 0 0 0 0 0 0
1 0 0 0 0 0 0 0 0 0 0 0 0 0 0 0 0 0 0 0 0 0 0 0 0 0 0 0 0 0 0 0 0 0 0 0 0 0 0 0 0 0 0
1 0 0 0 0 0 0 0 0 0 0 0 0 0 0 0 0 0 0 0 0 0 0 0 0 0 0 0 0 0 0 0 0 0 0 0 0 0 0 0 0 0 0
0 0 0 0 0 0 0 0 0 0 0 0 0 0 0 0 0 0 0 0 0 0 0 0 0 1 0 0 0 0 0 0 0 0 0 0 0 0 0 0 0 0 0

GFSMW_con_mlcape_129.txt.gz
CAPE
0 0 0 0 0 0 0 0 0 0 0 0 0 0 0 0 0 0 0 0 0 1 0 0 0 0 0 0 0 1 1 1 122 276 594 469 492 452 481 361 2 42 5
0 0 0 0 0 0 0 0 0 0 0 0 0 0 0 0 0 0 0 0 0 0 0 2 3 3 2 2 3 3 2 0 0 17 104 82 160 522 432 129 13 25 0
0 0 0 1 1 0 0 0 0 0 0 0 0 0 0 0 0 0 0 0 0 1 3 1 1 0 4 3 2 2 3 4 0 0 18 30 26 121 434 285 272 88 20
0 0 0 0 0 0 0 0 0 0 0 0 0 0 0 0 0 0 0 0 0 1 1 1 1 1 1 3 4 6 4 3 3 2 0 1 21 18 150 417 366 292 139
0 0 0 0 0 0 0 0 0 0 1 0 0 0 0 0 0 0 0 0 0 0 0 1 1 2 2 4 4 4 3 3 4 4 3 7 0 0 82 46 297 487 371
0 0 0 0 0 0 0 0 0 0 1 1 1 1 1 0 0 0 0 2 0 0 0 0 1 1 3 4 5 4 4 3 3 2 3 4 5 7 3 1 12 38 116
1 1 1 1 0 0 0 0 0 0 0 0 1 1 1 2 0 0 1 2 3 3 7 4 1 1 2 4 4 4 3 3 2 3 2 3 3 3 2 5 2 2 2
1 2 0 0 0 0 0 0 0 0 0 0 1 1 3 1 2 1 3 3 4 5 5 4 5 1 3 1 3 2 5 3 1 1 2 2 0 2 3 3 5 6 8
2 1 0 0 0 0 0 1 0 0 0 0 1 0 0 1 1 1 4 5 3 3 4 3 4 1 1 3 4 5 5 2 3 2 2 2 2 3 2 3 4 4 4
1 1 0 0 0 0 0 0 0 0 1 0 0 1 2 3 0 1 2 5 3 4 2 3 3 4 4 3 4 3 3 3 1 1 2 2 1 2 3 3 5 3 10
1 1 0 0 0 0 0 1 0 1 0 0 0 0 1 2 1 2 3 5 3 2 2 2 3 4 4 6 4 4 3 3 2 0 2 1 0 2 2 3 5 7 6
1 1 0 0 0 0 0 0 1 0 0 1 0 1 1 0 1 2 2 2 4 1 0 2 3 5 4 3 6 4 3 2 1 1 0 1 1 2 2 4 3 4 4
1 0 0 0 0 0 0 0 1 0 1 1 1 0 0 0 0 0 0 0 0 0 0 1 0 0 1 1 4 5 4 3 2 1 1 1 1 2 2 2 3 3 5
0 0 0 0 0 0 0 1 1 0 0 0 0 0 0 0 0 0 0 0 0 0 0 0 0 0 0 1 1 1 1 2 3 3 4 2 2 1 2 2 3 5 6
0 0 0 0 0 0 0 1 0 0 0 0 0 0 0 0 0 0 0 0 0 0 0 0 0 0 0 0 0 1 1 1 0 1 1 1 2 2 3 2 2 3 5
0 0 0 0 0 0 0 0 0 0 0 0 0 0 0 0 0 0 0 0 0 0 0 0 0 0 0 0 0 1 2 2 1 0 0 0 0 1 0 0 2 2 3
0 0 0 0 0 0 0 0 0 0 0 0 0 0 0 0 0 0 0 0 0 0 1 1 0 0 0 0 0 0 1 1 1 0 0 0 0 0 0 0 1 2 2
0 0 0 0 0 0 0 0 0 0 0 0 0 0 0 0 0 0 1 3 5 3 3 1 1 0 0 0 0 0 1 3 2 3 0 0 0 0 0 0 0 0 2
0 0 1 1 0 3 0 0 0 0 0 0 0 0 0 0 1 0 1 3 3 4 4 4 1 0 0 0 0 0 1 0 0 1 0 0 0 0 0 0 0 0 0
2 0 0 0 1 0 0 0 0 0 0 0 0 0 0 0 0 1 2 4 5 4 6 5 1 1 0 0 0 0 0 0 0 0 0 0 0 0 0 0 0 0 0
0 0 1 1 0 0 0 0 0 0 0 0 0 0 0 0 2 2 4 4 3 3 2 3 1 0 0 0 0 0 0 0 0 0 0 0 0 0 0 0 0 0 0
1 2 2 2 2 0 0 0 0 1 1 0 0 0 0 0 2 2 6 3 2 0 1 0 0 1 0 0 0 0 0 0 0 0 0 0 0 0 0 0 0 0 0
1 2 0 0 0 0 0 0 0 0 0 0 0 0 0 0 0 0 0 0 0 0 0 0 0 0 0 0 0 0 0 0 1 1 0 0 0 0 0 0 0 0 0
2 0 0 0 0 0 0 0 0 0 0 0 0 0 0 0 0 0 0 0 0 0 0 0 0 0 0 0 0 0 0 0 0 0 0 0 1 0 0 0 0 0 1
0 0 0 0 0 0 0 0 0 0 0 0 0 0 0 0 0 0 0 0 0 0 0 0 2 0 0 0 0 0 0 0 0 1 0 0 0 0 0 0 0 1 0
0 0 0 0 0 0 0 0 0 0 0 0 0 0 0 0 0 0 0 0 0 0 0 0 0 1 0 0 0 0 0 0 0 0 0 0 0 0 0 0 0 0 0

GFSMW_con_mlcape_132.txt.gz
CAPE
0 0 0 0 0 0 0 0 0 0 0 0 0 0 0 0 0 0 0 0 0 0 0 0 0 0 0 0 0 0 0 0 0 0 0 3 79 137 521 346 260 62 27
0 0 0 0 0 0 0 0 0 0 0 0 0 0 0 0 0 0 0 0 0 0 0 0 1 1 1 0 0 1 0 0 0 0 0 0 0 91 376 471 340 245 95
0 0 0 0 0 0 0 0 0 0 0 0 0 0 0 0 0 0 0 0 0 0 0 1 0 0 0 0 0 0 0 0 0 0 2 3 0 0 0 58 257 361 204
0 0 0 0 0 0 0 0 1 0 0 0 0 0 0 0 0 0 0 0 0 0 0 0 0 0 0 0 1 2 0 1 1 0 0 0 1 4 1 0 2 203 374
0 0 0 0 0 0 0 0 0 0 0 0 0 0 0 0 0 0 0 0 0 0 0 0 0 0 0 0 1 1 0 1 1 1 2 2 1 0 4 2 0 0 0
0 0 0 0 0 0 0 0 0 0 0 0 0 0 0 0 0 0 0 0 1 0 0 0 0 0 0 1 0 2 1 0 0 1 4 2 4 3 5 3 0 3 0
0 0 0 0 0 0 0 0 0 0 0 0 0 0 0 0 0 0 0 0 0 0 1 1 0 0 1 0 0 1 1 1 0 1 1 1 1 2 3 3 3 4 1
0 0 0 0 0 0 0 0 0 0 0 0 0 0 0 0 0 0 0 0 0 0 2 2 1 0 1 0 1 0 1 0 1 1 0 1 2 1 1 5 3 2 0
0 0 0 0 0 0 0 0 0 0 0 0 0 0 0 0 0 1 0 0 1 2 0 1 2 0 3 1 2 3 1 1 0 0 1 1 1 0 2 2 4 5 2
0 0 0 0 0 0 0 0 0 0 0 0 0 0 0 0 0 0 0 1 0 0 0 0 3 0 0 1 0 1 0 0 0 1 0 1 1 1 1 1 2 4 5
0 0 0 0 0 0 0 0 0 0 0 0 0 0 0 0 0 1 1 1 1 1 0 1 1 0 0 0 1 1 0 0 0 1 0 0 1 1 1 1 2 2 2
0 0 0 0 0 0 0 0 0 0 0 0 0 0 0 1 1 1 1 0 0 0 0 0 0 0 0 0 1 1 2 2 1 3 0 0 1 1 1 1 2 3 1
0 0 0 0 0 0 0 0 0 0 0 0 0 0 0 0 0 0 0 0 0 0 0 0 0 0 0 0 0 0 0 0 0 0 0 0 1 1 1 1 2 2 2
0 0 0 0 0 0 0 0 0 0 0 0 0 0 0 0 0 0 0 0 0 0 0 0 0 0 0 0 0 0 0 1 1 0 2 0 1 1 1 1 1 1 1
0 0 0 0 0 0 0 0 0 0 0 0 0 0 0 0 0 0 0 0 0 0 0 0 0 0 0 0 0 2 0 0 0 0 0 0 0 0 1 2 1 1 2
0 0 0 0 0 0 0 0 0 0 0 0 0 0 0 0 0 0 0 0 0 0 0 0 0 0 0 0 0 0 0 0 0 0 0 0 0 0 0 0 1 1 1
0 0 0 0 0 0 0 0 0 0 0 0 0 0 0 0 0 0 0 0 0 0 0 0 0 0 0 0 0 1 0 0 0 0 0 0 0 0 0 0 0 0 0
0 0 0 0 0 0 0 0 0 0 0 0 0 0 0 0 0 0 0 0 0 0 0 0 0 0 0 0 0 0 0 2 0 0 0 0 0 0 0 0 0 0 0
0 0 0 0 0 0 0 0 0 0 0 0 0 0 0 0 0 0 0 0 0 0 0 0 0 0 0 0 0 0 0 0 0 0 0 0 0 0 0 0 0 0 0
0 0 0 0 0 0 0 0 0 0 0 0 0 0 0 0 0 0 0 0 0 0 0 0 0 0 0 0 0 0 0 0 0 0 0 0 0 0 0 0 0 0 0
0 0 0 0 0 0 0 0 0 0 0 0 0 0 0 0 0 0 0 0 0 0 3 0 0 0 0 0 0 0 0 0 0 0 0 0 0 0 0 0 0 0 0
3 1 0 0 0 0 0 0 0 0 0 0 0 0 0 0 0 0 0 0 0 0 0 0 0 0 0 0 0 0 0 0 0 0 0 0 0 0 0 0 0 0 0
2 2 0 0 1 0 0 0 0 0 0 0 0 0 0 0 0 0 0 0 0 0 0 0 0 0 0 0 0 0 0 0 0 0 0 0 0 0 0 0 0 0 0
1 0 0 0 0 0 0 0 0 0 0 0 0 0 0 0 0 0 0 0 0 0 0 0 0 0 0 0 0 0 0 0 0 0 0 0 0 0 0 0 0 0 0
0 0 0 0 0 0 0 0 0 0 0 0 0 0 0 0 0 0 0 0 0 0 0 0 0 0 0 0 0 0 0 0 0 0 0 0 0 0 0 0 0 0 0
0 0 0 0 0 0 0 0 0 0 0 0 0 0 0 0 0 0 0 0 0 0 0 0 0 0 0 0 0 0 0 0 0 0 0 0 0 0 0 0 0 0 0